Tokyo Downtown, Japan

9:10 PM JST on October 20, 2019 (GMT +0900)
Tokyo Downtown

Weather History for RJTD - August, 2019

Change the Weather History Date:

Monday, August 5, 2019

  Actual Average (RJTI) Record (RJTI)
Temperature  
Mean Temperature 86 °F -  
Max Temperature 94 °F 87 °F 93 °F (2006)
Min Temperature 77 °F 74 °F 75 °F (2001)
Cooling Degree Days 20    
Growing Degree Days 36 (Base 50)    
Moisture  
Dew Point 77 °F    
Average Humidity 71    
Maximum Humidity 95    
Minimum Humidity 48    
Precipitation  
Precipitation 0.00 in 0.20 in - ()
Sea Level Pressure  
Sea Level Pressure 29.89 in    
Wind  
Wind Speed 5 mph ()    
Max Wind Speed 12 mph    
Max Gust Speed -    
Visibility 14.0 miles    
Events      
Averages and records for this station are not official NWS values.
T = Trace of Precipitation, MM = Missing Value Source: Averaged Metar Reports

Daily Weather History Graph

Daily Weather History Graph

Search for Another Location

Airport or City:

Astronomy

Aug. 05, 2019 Rise Set
Actual Time 4:51 AM JST 6:42 PM JST
Civil Twilight 4:23 AM JST 7:09 PM JST
Nautical Twilight 3:49 AM JST 7:43 PM JST
Astronomical Twilight 3:13 AM JST 8:19 PM JST
Moon 9:14 AM JST (8/5) 9:43 PM JST (8/5)
Length of Visible Light 14h 46m
Length of Day
13h 50m
Waxing Crescent, 22% of the Moon is Illuminated
Aug 5
Waxing Crescent
Aug 8
First Quarter
Aug 15
Full
Aug 23
Last Quarter
Aug 30
New

Hourly Weather History & Observations

Time (JST) Temp. Dew Point Humidity Pressure Visibility Wind Dir Wind Speed Gust Speed Precip Events Conditions
12:00 AM 81 °F 76 °F 81% 29.93 in - SSE 6.9 mph - -  
1:00 AM 80 °F 77 °F 86% 29.92 in - South 5.8 mph - -  
2:00 AM 80 °F 76 °F 86% 29.92 in - South 4.6 mph - -  
3:00 AM 78 °F 76 °F 91% 29.92 in 12 mi South 3.5 mph - -   Scattered Clouds
3:00 AM - - N/A% - - North - - N/A   Unknown
4:00 AM 77 °F 76 °F 95% 29.92 in - SSE 3.5 mph - -  
5:00 AM 77 °F 76 °F 94% 29.92 in - South 3.5 mph - -  
5:00 AM - - N/A% - - North - - N/A   Unknown
6:00 AM 82 °F 77 °F 81% 29.94 in 12 mi SSE 1.2 mph - -   Partly Cloudy
7:00 AM 84 °F 76 °F 71% 29.94 in - North 2.3 mph - -  
7:00 AM - - N/A% - - North - - N/A   Unknown
11:00 AM 92 °F 75 °F 48% 29.90 in - SSE 9.2 mph - -  
12:00 PM 92 °F 75 °F 48% 29.89 in 16 mi SSE 9.2 mph - -   Scattered Clouds
12:00 PM - - N/A% - - North - - N/A   Unknown
1:00 PM 92 °F 75 °F 49% 29.87 in - SE 6.9 mph - -  
2:00 PM 93 °F 76 °F 49% 29.85 in - SE 9.2 mph - -  
3:00 PM 93 °F 79 °F 55% 29.85 in 16 mi South 8.1 mph - -   Scattered Clouds
4:00 PM 91 °F 78 °F 59% 29.85 in - SSE 11.5 mph - -  
5:00 PM 89 °F 78 °F 64% 29.85 in - SSE 9.2 mph - -  
6:00 PM 88 °F 79 °F 67% 29.85 in 16 mi SSE 11.5 mph - -   Scattered Clouds
6:00 PM - - N/A% - - North - - N/A   Unknown
8:00 PM 85 °F 78 °F 73% 29.88 in - South 9.2 mph - -  
9:00 PM 84 °F 77 °F 74% 29.89 in 12 mi South 9.2 mph - -   Scattered Clouds
11:00 PM 84 °F 78 °F 77% 29.91 in - SSE 4.6 mph - -